Location: Unspecified
(0.0000°N, 0.0000°E)
Time: 02:13:57
(UTC+00:00)

Courier 1B Rocket - Pass Details

Date: 17 December 2018
Orbit: 920 x 1202 km, 28.3° (Epoch: 16 January)

Event Time Altitude Azimuth Distance (km) Brightness Sun altitude
Rises 04:07:30 0° 236° (SW) 3,613 - -24.7°
Reaches altitude 10° 04:10:11 10° 234° (SW) 2,642 - -24.1°
Exits shadow 04:12:07 21° 231° (SW) 1,959 6.3 -23.7°
Maximum altitude 04:16:29 73° 150° (SSE) 957 5.0 -22.7°
Drops below altitude 10° 04:22:42 10° 66° (ENE) 2,608 7.8 -21.3°
Sets 04:25:19 0° 64° (ENE) 3,563 8.5 -20.7°
